Flag for U.S.A. Weather past 2 weeks in South Bend, Indiana, U.S.A.

Now
80 °F

Passing clouds.


Feels Like: 81 °F
Forecast: 66 / 80 °F
Wind: 8 mph from North

Location: Michiana Regional Airport

Current Time: Sep 2, 2014 at 6:58:53 PM

Latest Report: Sep 2, 2014 at 5:54 PM


Visibility: 10 mi

Pressure: 29.90 "Hg

Humidity: 49%

Dew point: 59 °F

Location of South BendLocation

Historic Weather in South Bend — Graph

°F

South Bend temperature yesterday

Maximum temperature yesterday: 84 °F (at 4:54 PM)
Minimum temperature yesterday: 72 °F (at 5:54 AM)
Average temperature yesterday: 76 °F

Past Weeks' High & Low Weather Summary

 TemperatureHumidityPressure
High90 °F (Aug 25, 2:02 PM)97% (Aug 23, 5:54 AM)30.17 "Hg (Aug 23, 5:54 AM)
Low59 °F (Aug 28, 6:54 AM)39% (Sep 2, 4:54 PM)29.72 "Hg (Aug 19, 2:54 PM)
Average75 °F78%29.96 "Hg
* Reported Aug 18 4:54 PM — Sep 2 4:54 PM, South Bend, Weather by CustomWeather, © 2014

Note: Actual official high and low records may vary slightly from our data, if they occured in-between our weather recording intervals... More about our weather records

Advertising

South Bend weather history for previous 24 hours

 ConditionsComfort  
Time TempWeatherWind HumidityBarometerVisibility
4:54 PM
Sep 2
81 °FSunny.13 mph39%29.90 "Hg10 mi
3:54 PM81 °FPassing clouds.7 mph51%29.90 "Hg10 mi
2:54 PM79 °FScattered clouds.12 mph62%29.90 "Hg10 mi
1:54 PM78 °FScattered clouds.9 mph64%29.89 "Hg10 mi
12:54 PM75 °FScattered clouds.6 mph76%29.90 "Hg10 mi
11:54 AM72 °FLight rain. Mostly cloudy.7 mph84%29.92 "Hg10 mi
10:54 AM72 °FScattered clouds.7 mph81%29.90 "Hg10 mi
10:03 AM72 °FBroken clouds.9 mph81%29.90 "Hg10 mi
9:54 AM71 °FBroken clouds.8 mph81%29.89 "Hg10 mi
8:54 AM70 °FMostly cloudy.7 mph87%29.87 "Hg10 mi
8:02 AM70 °FMostly cloudy.9 mph87%29.89 "Hg10 mi
7:54 AM70 °FMostly cloudy.8 mph87%29.88 "Hg10 mi
6:54 AM69 °FPartly cloudy.7 mph90%29.87 "Hg10 mi
5:54 AM69 °FPassing clouds.9 mph87%29.87 "Hg10 mi
4:54 AM70 °FClear.10 mph87%29.85 "Hg10 mi
3:54 AM69 °FClear.6 mph87%29.85 "Hg10 mi
2:54 AM71 °FMostly cloudy.8 mph81%29.88 "Hg10 mi
1:54 AM71 °FPassing clouds.10 mph81%29.86 "Hg10 mi
12:54 AM71 °FPassing clouds.10 mph84%29.86 "Hg10 mi
11:54 PM
Sep 1
72 °FClear.7 mph81%29.85 "Hg10 mi
10:54 PM73 °FClear.5 mph79%29.84 "Hg10 mi
9:54 PM73 °FClear.7 mph79%29.83 "Hg10 mi
8:54 PM75 °FSunny.6 mph71%29.81 "Hg10 mi
7:54 PM79 °FSunny.9 mph65%29.79 "Hg10 mi
6:54 PM82 °FSunny.13 mph58%29.78 "Hg10 mi
Weather by CustomWeather, © 2014

See weather overviewHow to use our weather pages